Wind_Speed
15 17 18 21 23 25 27 29 30 31 33 34 35 36 37 38 39 39 39 39 39 39 39 39 39 39 38 38 37 37 37 37 35 34 33 32 32 30 30 31 33 32 32
12 15 17 19 21 23 25 27 28 30 32 34 35 36 37 37 38 38 38 38 38 38 38 38 38 39 38 38 38 37 37 37 37 36 34 32 31 30 30 31 32 32 33
12 14 16 18 20 22 24 26 28 30 32 33 35 36 36 37 38 38 37 37 37 37 37 37 37 37 37 37 38 38 37 37 37 36 34 32 31 29 29 30 32 32 33
11 13 15 17 19 21 23 25 27 29 31 32 34 35 35 36 37 37 37 37 37 37 36 36 36 36 36 36 37 37 37 37 37 36 36 34 33 31 30 31 32 33 33
11 13 16 18 20 22 23 26 28 30 31 32 33 34 35 36 36 37 37 37 38 37 36 35 34 34 34 35 35 35 35 35 35 35 36 35 35 33 32 31 32 33 33
13 16 18 20 22 24 26 28 29 31 32 32 33 34 35 36 37 37 38 37 38 38 37 36 35 35 34 34 35 34 34 34 34 34 35 35 35 34 34 33 33 33 33
17 19 21 24 26 28 30 32 33 34 34 35 35 36 37 37 38 38 38 38 39 39 39 38 37 37 36 35 35 35 35 34 34 34 35 35 35 36 35 34 33 34 34
21 23 26 28 30 32 35 36 37 38 38 38 38 38 38 39 39 39 39 39 39 39 39 39 39 39 37 36 36 35 36 35 35 35 36 36 36 37 37 36 35 35 35
25 27 29 31 33 36 37 39 39 39 39 39 39 39 39 39 39 39 39 39 39 40 40 40 40 40 39 38 37 37 37 37 36 36 36 37 37 37 38 38 38 37 36
27 29 31 34 36 38 39 40 41 41 41 40 40 40 40 40 40 40 40 40 39 40 40 40 40 40 40 40 40 39 39 39 39 39 38 39 39 39 39 40 40 40 38
29 30 33 35 37 39 40 41 41 41 41 41 41 41 40 40 40 40 40 39 39 39 40 40 40 40 40 41 41 41 41 41 41 41 41 41 41 41 41 41 41 41 41
29 31 34 36 38 40 40 41 41 41 41 41 41 41 41 41 41 41 40 39 39 40 40 39 40 41 41 42 43 43 43 43 43 43 43 43 43 44 43 43 43 44 44
30 32 35 38 39 40 40 41 41 41 41 42 42 42 42 41 41 40 40 40 40 39 40 40 41 41 41 42 43 44 44 44 44 45 46 46 46 47 47 46 46 46 46
31 34 37 39 39 40 40 40 41 42 42 43 43 43 42 42 41 40 40 40 40 39 40 40 40 41 41 42 43 44 45 45 45 46 47 48 49 49 50 50 50 50 49
33 35 38 39 39 40 40 41 42 43 43 44 44 44 43 42 41 40 40 40 40 40 39 39 39 39 39 40 41 43 44 45 46 47 48 49 50 51 52 53 54 54 53
34 36 38 39 40 40 41 42 43 44 45 45 45 45 44 42 41 40 40 40 40 39 39 38 37 37 38 40 41 43 43 44 45 46 47 48 50 51 53 55 57 58 57
34 37 38 39 40 41 42 43 44 45 46 46 46 46 44 42 41 40 40 40 39 38 37 37 37 38 39 40 40 40 40 40 41 43 44 46 49 51 53 56 58 60 60
35 37 39 40 41 42 43 44 45 46 46 47 47 46 45 43 41 40 40 39 38 37 37 37 37 37 37 37 37 37 37 36 37 38 40 43 46 49 52 55 59 60 61
36 38 39 40 41 42 43 45 46 46 47 47 47 46 44 42 41 40 39 39 38 37 37 37 37 36 35 35 35 35 34 33 33 35 37 40 43 46 50 54 57 60 62
37 38 40 41 42 42 44 45 46 46 47 47 47 46 44 43 41 40 39 39 38 37 37 37 36 35 33 32 32 32 31 29 29 31 34 37 40 44 47 52 56 58 60
37 39 40 42 42 43 44 45 46 46 47 47 47 46 44 43 42 41 40 39 38 37 36 35 34 32 31 31 31 29 27 26 27 28 30 32 36 40 44 48 53 56 59
38 39 41 42 43 43 44 45 46 46 46 46 46 46 44 43 42 41 40 39 38 37 35 33 33 32 32 30 29 26 24 23 23 23 24 27 31 36 40 45 49 54 57
38 40 41 42 43 44 45 45 46 46 46 46 46 45 44 43 42 41 40 38 36 36 35 33 32 31 30 28 25 23 20 19 17 15 17 21 26 31 36 41 46 50 54
40 41 42 43 43 44 45 45 46 46 45 45 45 45 44 42 42 41 38 36 36 35 35 33 32 30 27 25 23 20 17 14 11 10 13 17 21 26 32 38 43 47 51
41 42 43 43 44 44 45 45 46 45 45 45 45 44 43 42 41 40 38 36 36 36 35 33 31 28 25 23 21 17 14 11 9 8 10 13 17 22 28 34 39 44 48
42 43 43 44 44 45 45 45 45 46 45 45 44 43 42 41 40 38 37 36 36 36 35 32 30 26 24 22 19 16 11 8 6 6 9 13 17 20 25 30 35 40 45
Wind_Direction
286 289 291 293 294 296 297 298 298 297 297 296 296 295 294 294 292 291 290 289 287 286 285 284 283 281 279 278 276 274 273 273 272 270 269 266 264 261 257 251 243 239 234
295 298 299 300 301 302 302 302 301 300 299 298 298 297 297 295 294 293 291 289 287 285 284 282 281 279 278 276 275 273 272 271 270 269 267 264 261 260 257 249 241 240 235
303 305 307 308 308 307 306 304 302 301 300 299 299 299 298 297 296 295 293 291 288 286 284 282 280 278 277 275 273 272 270 268 267 266 263 260 258 256 254 248 242 241 237
313 314 314 313 312 310 309 308 306 304 302 301 300 299 299 298 298 297 296 294 291 289 286 284 281 279 277 275 272 271 269 266 265 263 260 259 255 254 251 249 243 239 237
326 325 322 319 317 316 315 313 311 309 307 305 304 302 301 300 299 298 297 295 293 291 289 286 284 281 279 276 273 270 267 264 262 260 258 256 253 250 247 245 242 239 235
336 332 327 325 324 322 320 318 317 315 313 311 308 306 305 303 302 300 299 297 295 293 291 288 286 283 281 277 274 271 267 264 260 258 256 254 251 248 246 243 240 237 235
338 336 333 331 330 327 325 324 322 321 319 316 313 310 308 306 304 302 300 298 296 294 291 289 286 284 281 278 275 271 267 263 259 256 254 251 249 247 245 242 239 235 233
340 338 335 333 331 329 327 326 325 323 320 318 315 313 311 309 307 304 302 299 296 294 291 288 286 284 282 279 275 272 268 264 259 256 253 250 248 245 243 239 237 234 230
340 337 335 332 331 329 328 326 324 322 321 319 317 315 313 310 308 306 303 300 297 294 291 288 286 284 281 278 275 272 268 265 261 257 253 250 247 245 242 237 234 232 230
338 336 334 332 330 328 326 325 325 324 322 321 319 317 314 312 310 307 304 301 298 294 291 289 286 283 281 278 276 272 269 265 262 258 254 250 246 244 241 237 234 230 228
335 333 331 330 328 327 326 326 326 325 324 322 321 319 317 314 311 308 305 302 300 297 293 290 287 284 281 279 276 274 270 266 262 259 255 251 246 243 240 237 233 229 226
330 329 329 328 328 327 326 327 327 326 326 325 324 322 320 317 314 311 308 304 302 298 295 291 288 285 283 280 278 275 271 268 263 259 255 251 246 242 239 236 233 229 225
328 328 329 329 328 327 327 328 329 329 328 327 326 324 322 319 316 313 309 307 304 300 297 294 291 288 285 282 279 276 272 268 264 260 255 251 247 242 239 235 232 229 226
328 329 328 328 328 328 329 330 331 331 330 329 328 326 324 321 318 315 311 309 306 302 299 297 295 291 287 284 281 278 274 270 265 261 256 251 247 243 238 234 231 229 225
328 327 327 328 329 330 331 332 333 333 332 331 330 328 326 323 320 317 314 311 308 305 303 301 297 293 290 287 284 280 276 271 266 262 257 251 246 242 237 233 230 228 224
326 326 327 329 330 332 332 332 333 333 333 332 331 330 328 325 321 318 316 314 311 309 306 304 299 296 294 291 288 283 279 273 268 262 257 251 245 240 236 231 228 226 225
325 326 328 329 330 331 332 332 332 333 333 332 332 331 329 326 323 320 318 316 314 312 309 306 302 299 297 294 290 286 281 275 269 263 256 249 242 237 233 229 227 225 223
325 327 329 330 330 331 331 332 332 332 333 333 333 332 330 328 325 323 321 319 318 314 311 308 305 303 299 296 293 289 284 279 270 262 255 248 241 236 232 228 224 222 221
326 327 329 329 330 331 331 332 333 333 333 334 334 333 332 330 327 325 323 322 321 317 314 311 308 306 303 300 296 293 288 281 273 264 256 248 239 234 230 226 222 221 219
326 327 329 329 330 331 331 332 333 333 334 334 335 334 333 331 330 328 326 325 323 320 317 314 312 309 307 304 301 296 290 282 274 267 257 247 238 232 228 224 220 219 216
325 327 328 329 330 330 331 332 333 334 334 335 336 336 334 333 332 331 329 327 325 323 321 319 316 314 311 308 305 300 292 284 278 269 257 245 237 230 224 221 218 216 215
325 327 328 329 329 330 331 332 333 334 334 335 336 337 335 334 334 333 332 330 329 328 326 322 319 316 315 312 308 302 296 291 283 269 253 240 232 225 220 217 214 213 213
324 326 327 328 329 329 330 332 333 334 335 336 337 337 336 336 336 335 335 334 333 333 330 327 323 320 318 316 313 307 301 297 287 267 248 234 224 217 215 213 211 210 210
324 325 326 328 329 329 330 332 333 335 336 337 337 338 337 337 337 338 337 337 336 336 335 332 328 325 324 322 319 312 306 299 288 262 236 222 217 214 210 207 207 207 207
323 324 325 327 329 330 331 332 334 335 336 337 338 338 338 338 338 339 339 338 339 339 338 336 333 330 328 326 324 318 310 300 285 254 229 216 208 204 203 202 203 203 203
322 323 325 326 328 329 330 332 333 335 335 336 337 338 338 338 339 340 340 340 341 341 341 340 338 335 332 331 329 325 316 298 279 243 215 200 193 195 196 197 197 198 200
Height
5871 5869 5868 5866 5863 5861 5858 5855 5852 5849 5845 5842 5839 5836 5832 5829 5826 5823 5820 5818 5815 5813 5811 5809 5807 5806 5805 5804 5803 5803 5803 5803 5803 5803 5804 5805 5805 5806 5808 5810 5813 5816 5820
5867 5865 5864 5861 5859 5856 5853 5850 5846 5843 5839 5835 5831 5827 5824 5820 5817 5814 5811 5808 5805 5803 5801 5799 5797 5796 5795 5794 5793 5793 5793 5793 5793 5794 5794 5796 5798 5798 5800 5802 5805 5808 5812
5864 5862 5860 5857 5854 5852 5848 5845 5841 5837 5832 5828 5823 5819 5815 5811 5808 5804 5801 5798 5795 5793 5791 5789 5787 5786 5784 5784 5783 5783 5783 5783 5783 5783 5785 5787 5789 5790 5792 5794 5797 5800 5804
5861 5858 5856 5853 5850 5847 5843 5839 5835 5830 5825 5821 5816 5812 5807 5803 5799 5795 5791 5787 5784 5782 5780 5778 5777 5775 5774 5773 5772 5772 5772 5773 5773 5774 5775 5777 5779 5781 5784 5787 5789 5792 5796
5857 5854 5852 5849 5845 5842 5837 5833 5828 5823 5818 5813 5808 5803 5799 5794 5790 5785 5781 5778 5774 5771 5769 5767 5766 5764 5763 5762 5761 5761 5761 5762 5763 5764 5765 5767 5769 5771 5775 5778 5781 5784 5788
5853 5850 5847 5843 5839 5835 5831 5826 5821 5816 5810 5804 5799 5794 5790 5785 5780 5776 5771 5768 5764 5760 5758 5756 5754 5753 5752 5751 5750 5750 5750 5751 5752 5753 5755 5757 5759 5762 5765 5769 5772 5775 5779
5848 5845 5841 5837 5832 5828 5823 5818 5812 5807 5801 5796 5791 5785 5780 5775 5771 5766 5762 5758 5754 5750 5747 5745 5743 5741 5740 5740 5739 5739 5739 5740 5741 5743 5744 5746 5749 5752 5755 5759 5763 5766 5770
5842 5839 5835 5830 5826 5821 5816 5810 5805 5799 5793 5788 5782 5777 5771 5766 5761 5756 5751 5747 5743 5740 5736 5733 5731 5730 5728 5728 5727 5727 5727 5728 5730 5732 5733 5736 5738 5741 5745 5749 5753 5757 5762
5836 5833 5829 5824 5820 5815 5809 5803 5798 5792 5786 5780 5774 5768 5762 5757 5751 5746 5741 5737 5732 5729 5725 5722 5719 5717 5716 5715 5715 5715 5715 5716 5718 5720 5722 5725 5727 5731 5734 5738 5743 5748 5752
5832 5828 5824 5819 5814 5809 5803 5797 5791 5784 5778 5772 5765 5759 5753 5747 5741 5736 5731 5726 5721 5717 5713 5710 5707 5705 5703 5702 5702 5702 5702 5704 5705 5707 5710 5713 5716 5719 5723 5727 5732 5737 5742
5828 5824 5819 5815 5809 5803 5797 5790 5784 5777 5771 5764 5757 5751 5744 5738 5731 5725 5720 5715 5710 5706 5702 5698 5695 5692 5690 5688 5687 5687 5688 5689 5691 5693 5696 5699 5703 5707 5711 5716 5721 5726 5731
5825 5820 5816 5810 5804 5798 5791 5784 5777 5770 5763 5756 5749 5742 5735 5728 5722 5715 5709 5704 5699 5694 5690 5686 5682 5679 5677 5674 5673 5672 5673 5673 5675 5677 5681 5685 5688 5694 5699 5704 5709 5714 5720
5821 5816 5811 5805 5799 5792 5785 5778 5771 5763 5756 5748 5741 5734 5726 5719 5712 5705 5699 5693 5687 5682 5677 5673 5669 5666 5663 5660 5658 5657 5657 5658 5659 5661 5664 5668 5673 5678 5684 5690 5696 5702 5708
5816 5811 5806 5800 5793 5786 5779 5772 5764 5756 5749 5741 5733 5725 5718 5710 5702 5695 5689 5682 5676 5671 5665 5660 5656 5652 5648 5645 5643 5641 5640 5641 5642 5644 5647 5651 5656 5661 5668 5675 5682 5689 5696
5811 5806 5801 5794 5787 5780 5773 5765 5757 5749 5741 5733 5725 5717 5709 5701 5693 5686 5679 5672 5665 5659 5653 5648 5643 5638 5634 5631 5628 5625 5624 5623 5624 5626 5629 5632 5637 5643 5650 5658 5666 5674 5682
5807 5801 5795 5788 5781 5774 5766 5758 5751 5743 5734 5726 5717 5709 5700 5692 5684 5676 5669 5662 5655 5648 5642 5636 5630 5626 5621 5617 5613 5609 5607 5606 5606 5607 5609 5613 5619 5625 5632 5640 5648 5658 5667
5802 5796 5789 5782 5775 5767 5760 5752 5744 5736 5727 5718 5709 5701 5692 5684 5675 5667 5660 5652 5645 5637 5631 5625 5619 5613 5608 5603 5598 5594 5591 5589 5588 5589 5591 5594 5600 5606 5613 5622 5631 5641 5651
5797 5790 5783 5776 5769 5761 5753 5745 5737 5728 5720 5711 5702 5693 5684 5675 5667 5658 5650 5642 5635 5627 5620 5614 5607 5601 5595 5589 5584 5579 5576 5573 5572 5572 5573 5577 5582 5588 5596 5604 5614 5624 5635
5791 5784 5777 5770 5762 5755 5747 5738 5730 5721 5712 5703 5694 5685 5676 5667 5659 5650 5641 5633 5625 5618 5610 5603 5596 5590 5583 5577 5571 5566 5562 5559 5557 5557 5558 5561 5566 5572 5579 5588 5599 5609 5620
5784 5778 5771 5763 5756 5748 5740 5732 5723 5714 5705 5696 5687 5677 5668 5659 5651 5642 5633 5624 5616 5608 5600 5592 5585 5578 5572 5566 5560 5554 5550 5547 5545 5544 5544 5546 5551 5556 5563 5573 5583 5594 5605
5778 5771 5764 5757 5750 5742 5734 5725 5716 5707 5698 5689 5679 5670 5660 5652 5643 5634 5624 5616 5607 5599 5591 5583 5575 5569 5563 5556 5550 5544 5540 5536 5534 5532 5531 5533 5537 5542 5550 5559 5570 5580 5591
5772 5765 5758 5750 5743 5735 5727 5718 5710 5701 5691 5682 5672 5663 5653 5644 5635 5626 5617 5608 5599 5590 5582 5574 5567 5560 5554 5547 5541 5535 5531 5527 5523 5521 5520 5522 5525 5531 5538 5548 5558 5568 5578
5765 5758 5751 5744 5736 5728 5720 5712 5703 5694 5684 5675 5666 5656 5646 5637 5628 5619 5610 5601 5592 5583 5575 5567 5560 5552 5545 5539 5533 5528 5524 5519 5516 5513 5513 5514 5518 5523 5530 5538 5547 5557 5568
5758 5751 5744 5737 5729 5721 5713 5705 5696 5687 5678 5669 5660 5650 5641 5631 5622 5613 5603 5595 5586 5577 5569 5560 5553 5545 5539 5533 5527 5522 5518 5515 5512 5510 5510 5511 5513 5518 5524 5531 5540 5549 5560
5751 5744 5737 5730 5722 5714 5706 5698 5689 5681 5672 5663 5654 5644 5635 5626 5617 5607 5598 5590 5581 5571 5563 5555 5547 5540 5534 5528 5522 5518 5514 5511 5509 5508 5508 5509 5511 5514 5519 5526 5534 5543 5553
5743 5736 5730 5723 5715 5707 5699 5691 5683 5675 5666 5657 5648 5639 5630 5621 5612 5604 5594 5585 5576 5567 5558 5550 5542 5535 5529 5524 5519 5515 5511 5509 5508 5507 5507 5508 5510 5513 5517 5523 5531 5539 5548